Probability
0 0 0 0 0 0 0 0 0 0 0 3 0 3 13 26 29 45 61 77 94 94 90 87 87 87 90 94 97 94 97 90 90 90 90 94 97 94 90 87 74 74 71 74
0 0 0 0 0 0 0 0 0 0 0 0 3 6 16 23 42 42 65 84 87 94 90 87 87 90 94 94 94 94 94 94 87 84 87 94 94 90 84 74 77 71 74 77
0 0 0 0 0 0 0 0 0 0 0 0 0 3 10 29 42 52 61 71 81 94 90 87 90 94 94 94 94 90 87 90 87 87 84 87 84 77 68 68 81 71 68 68
0 0 0 0 0 0 0 0 0 0 0 0 0 0 3 10 35 42 45 65 71 77 84 87 90 94 94 90 90 90 87 81 84 84 87 81 74 68 68 74 77 74 68 65
0 0 0 0 0 0 0 0 0 0 0 0 0 0 3 13 13 26 42 58 71 81 84 87 84 90 87 87 90 90 81 74 68 74 81 81 77 74 68 71 77 71 74 68
0 0 0 0 0 0 0 0 0 0 0 0 0 0 0 6 3 0 23 58 65 68 81 84 84 84 87 84 84 77 74 71 71 77 74 71 77 81 77 74 77 74 71 68
0 0 0 0 0 0 0 0 0 0 0 0 0 0 3 6 0 10 23 35 52 65 71 87 90 81 84 81 77 68 71 71 71 68 74 77 87 84 84 81 74 74 65 65
0 0 0 0 0 0 0 0 0 0 0 0 0 0 3 10 6 10 23 32 35 58 68 81 87 84 84 74 71 65 71 77 71 68 74 77 81 81 71 77 68 74 65 61
0 0 0 0 0 0 0 0 0 0 0 0 0 0 10 10 10 13 26 29 35 61 68 71 77 74 81 74 74 61 74 71 74 68 71 71 84 81 74 81 71 65 68 65
0 0 0 0 0 0 0 0 0 0 0 0 0 0 3 13 13 6 19 29 35 52 58 52 61 71 71 77 71 65 71 74 74 74 71 65 81 77 84 77 65 71 68 68
0 0 0 0 0 0 0 0 0 0 0 0 0 0 0 10 10 10 23 29 45 35 39 58 68 68 65 58 68 65 71 71 71 74 77 74 74 77 74 71 68 71 68 68
0 0 0 0 0 0 0 0 0 0 0 0 0 0 0 6 10 10 19 35 45 42 48 45 71 65 65 61 71 71 68 68 68 58 65 71 77 71 71 71 68 58 58 65
0 0 0 0 0 0 0 0 0 0 0 0 0 0 3 10 10 13 26 35 45 45 52 55 71 68 61 61 74 71 65 65 61 55 68 74 74 68 71 68 65 61 55 58
0 0 0 0 0 0 0 0 0 0 0 0 0 0 6 10 10 13 32 35 39 52 65 68 65 71 71 71 68 68 65 58 61 61 58 65 65 58 65 65 68 68 65 58
0 0 0 0 0 0 0 0 0 0 0 0 0 0 10 16 16 16 26 32 35 52 61 65 61 68 68 68 68 65 55 55 58 61 61 58 58 55 55 65 65 61 61 48
0 0 0 0 0 0 0 0 0 0 0 0 3 10 6 13 19 16 26 39 48 58 55 61 55 65 68 68 65 65 61 58 58 58 55 55 55 58 58 65 61 55 52 48
0 0 0 0 0 0 0 0 0 0 0 3 3 10 13 13 16 29 39 42 55 55 61 58 58 65 71 68 61 65 61 61 58 52 48 48 52 48 55 55 58 61 55 42
0 0 0 0 0 0 0 3 0 0 0 3 6 10 13 19 26 29 42 55 58 58 55 55 65 61 68 65 65 65 61 55 52 45 45 45 45 45 52 55 65 58 48 45
0 3 0 0 0 0 3 3 3 6 6 6 10 10 16 29 29 23 19 42 52 52 52 55 61 55 58 61 58 61 55 55 45 39 39 39 39 39 48 55 58 61 52 45
0 3 0 0 0 0 3 3 3 6 13 6 10 13 26 29 23 32 23 32 35 42 55 55 52 55 65 58 65 48 48 45 42 42 42 39 45 45 45 39 48 48 45 42
0 0 0 0 0 3 3 6 3 3 6 16 19 32 26 26 26 32 23 32 42 55 61 58 58 65 61 65 65 55 45 48 48 42 42 42 55 48 48 55 61 55 48 35
0 0 0 0 0 3 13 6 6 23 42 42 32 29 35 32 29 29 35 39 45 45 42 52 55 58 61 61 61 52 55 52 52 48 45 48 48 39 32 61 61 55 55 45
0 0 0 0 0 13 13 19 19 29 35 42 35 29 29 29 32 35 45 45 45 45 39 45 52 58 58 55 55 52 61 55 55 55 55 52 52 52 42 52 48 52 48 32
0 0 3 10 10 6 19 19 16 26 32 29 29 29 26 26 39 42 45 45 45 42 45 45 45 52 48 48 48 48 55 48 55 55 58 55 48 45 45 52 39 35 35 32
0 0 3 10 16 6 13 13 16 23 23 26 26 23 26 32 32 32 39 39 39 35 45 48 45 48 48 48 48 48 48 55 52 42 45 45 45 39 42 42 42 39 35 29
0 0 6 10 16 10 13 6 6 13 16 19 23 19 23 23 23 26 29 29 29 29 29 32 39 39 42 32 35 32 35 42 45 45 45 35 39 42 42 42 23 6 0 0
Height
5825 5830 5834 5839 5843 5846 5849 5852 5854 5856 5857 5860 5863 5865 5866 5868 5869 5870 5871 5871 5872 5872 5873 5873 5873 5873 5873 5873 5872 5872 5872 5873 5873 5874 5875 5877 5878 5880 5881 5883 5884 5886 5888 5889
5819 5823 5828 5831 5835 5839 5843 5847 5849 5851 5853 5856 5859 5861 5863 5864 5866 5867 5867 5868 5869 5869 5870 5870 5870 5870 5870 5869 5869 5868 5868 5869 5870 5871 5872 5873 5875 5877 5879 5880 5882 5884 5885 5887
5813 5818 5821 5825 5829 5834 5838 5842 5844 5846 5849 5852 5855 5858 5859 5861 5862 5863 5864 5865 5865 5866 5866 5867 5867 5867 5866 5866 5865 5864 5863 5864 5865 5867 5869 5871 5873 5874 5876 5878 5880 5881 5883 5885
5804 5809 5814 5818 5823 5828 5832 5836 5839 5842 5845 5848 5851 5855 5855 5857 5858 5859 5860 5861 5862 5862 5863 5863 5863 5863 5863 5863 5861 5861 5860 5861 5862 5864 5866 5867 5869 5872 5874 5875 5877 5879 5880 5882
5798 5803 5808 5813 5818 5822 5827 5830 5834 5837 5841 5844 5847 5851 5853 5853 5854 5856 5857 5857 5858 5859 5859 5860 5860 5860 5860 5859 5858 5858 5857 5858 5859 5860 5863 5864 5866 5868 5871 5873 5875 5877 5878 5880
5791 5796 5801 5807 5812 5816 5820 5825 5829 5832 5836 5839 5843 5846 5849 5849 5851 5852 5853 5853 5854 5855 5856 5856 5856 5856 5856 5856 5855 5855 5855 5855 5856 5857 5859 5862 5864 5865 5867 5870 5872 5874 5876 5878
5784 5789 5795 5800 5805 5810 5815 5821 5825 5828 5831 5835 5838 5840 5844 5845 5846 5848 5849 5850 5850 5851 5852 5852 5852 5853 5853 5853 5853 5852 5852 5852 5853 5854 5856 5859 5861 5862 5864 5867 5869 5871 5873 5875
5779 5785 5790 5795 5800 5805 5810 5816 5823 5827 5829 5832 5832 5835 5839 5841 5842 5843 5845 5846 5847 5847 5848 5848 5849 5849 5849 5849 5850 5849 5850 5850 5850 5852 5854 5856 5858 5859 5861 5863 5866 5868 5870 5871
5775 5780 5785 5790 5795 5801 5805 5810 5817 5821 5825 5828 5828 5831 5834 5836 5838 5839 5840 5842 5842 5843 5844 5845 5845 5845 5845 5846 5846 5846 5847 5847 5848 5849 5851 5852 5854 5856 5858 5860 5862 5864 5867 5868
5769 5775 5779 5784 5789 5794 5800 5805 5810 5814 5819 5823 5825 5827 5830 5831 5833 5835 5836 5837 5838 5839 5840 5841 5841 5841 5841 5842 5842 5843 5843 5844 5845 5846 5848 5849 5851 5853 5855 5857 5859 5861 5863 5865
5764 5770 5774 5779 5784 5789 5795 5799 5804 5810 5814 5820 5823 5826 5825 5827 5829 5830 5832 5833 5834 5835 5836 5837 5837 5837 5837 5838 5838 5839 5839 5840 5841 5842 5844 5845 5847 5850 5852 5854 5856 5858 5859 5861
5759 5765 5770 5775 5780 5784 5790 5794 5799 5805 5809 5813 5819 5823 5820 5822 5824 5826 5827 5828 5830 5831 5832 5833 5833 5833 5833 5834 5834 5835 5835 5836 5837 5838 5840 5842 5844 5846 5848 5850 5852 5854 5856 5857
5754 5760 5765 5770 5775 5779 5783 5788 5794 5799 5804 5808 5814 5819 5815 5818 5820 5821 5823 5824 5826 5827 5828 5829 5829 5829 5830 5830 5830 5831 5831 5832 5833 5834 5836 5838 5840 5842 5844 5846 5848 5849 5851 5853
5750 5755 5762 5768 5771 5774 5779 5784 5789 5794 5798 5803 5808 5812 5811 5813 5815 5817 5818 5820 5822 5823 5824 5825 5825 5825 5826 5826 5826 5826 5827 5828 5829 5830 5832 5835 5837 5839 5841 5843 5844 5845 5847 5848
5744 5750 5756 5762 5766 5770 5775 5779 5784 5788 5794 5799 5803 5805 5807 5808 5810 5812 5814 5816 5817 5818 5820 5821 5822 5822 5822 5822 5822 5822 5824 5824 5825 5827 5828 5830 5833 5835 5837 5839 5840 5842 5842 5844
5739 5745 5750 5756 5760 5765 5769 5774 5778 5783 5788 5793 5797 5800 5802 5803 5805 5807 5809 5811 5813 5814 5815 5816 5817 5818 5818 5818 5818 5819 5820 5821 5822 5823 5825 5826 5828 5831 5833 5835 5837 5838 5839 5840
5734 5740 5746 5751 5755 5759 5764 5769 5773 5778 5783 5787 5791 5795 5796 5798 5801 5803 5805 5807 5808 5809 5811 5812 5813 5814 5815 5815 5815 5815 5816 5817 5818 5820 5821 5823 5825 5827 5829 5831 5832 5833 5834 5836
5729 5735 5740 5746 5751 5754 5761 5764 5769 5773 5777 5782 5785 5789 5791 5793 5796 5798 5800 5802 5804 5805 5807 5808 5809 5810 5811 5812 5812 5813 5813 5814 5815 5816 5818 5820 5822 5824 5826 5827 5828 5829 5830 5831
5723 5729 5735 5741 5745 5750 5754 5759 5763 5768 5772 5776 5780 5783 5786 5788 5791 5793 5795 5797 5799 5801 5802 5804 5805 5807 5807 5808 5809 5810 5810 5811 5812 5813 5815 5817 5819 5820 5822 5823 5824 5825 5826 5827
5717 5723 5730 5735 5740 5745 5750 5754 5758 5764 5767 5771 5774 5777 5780 5783 5786 5789 5791 5792 5794 5796 5798 5799 5801 5802 5804 5805 5806 5807 5807 5808 5809 5810 5812 5813 5815 5816 5818 5819 5820 5821 5822 5823
5711 5717 5722 5728 5734 5739 5743 5748 5754 5759 5763 5766 5769 5772 5775 5778 5782 5784 5786 5787 5789 5791 5793 5795 5797 5798 5800 5801 5802 5803 5804 5805 5806 5807 5808 5810 5811 5812 5813 5814 5816 5817 5818 5819
5706 5711 5717 5722 5728 5734 5737 5742 5747 5752 5757 5760 5764 5767 5770 5773 5776 5778 5780 5782 5784 5786 5788 5790 5792 5794 5795 5797 5798 5799 5800 5801 5802 5803 5805 5806 5807 5808 5809 5810 5811 5812 5813 5814
5699 5705 5710 5716 5722 5727 5731 5736 5742 5746 5751 5755 5758 5762 5765 5768 5770 5773 5776 5778 5780 5781 5783 5785 5787 5789 5790 5792 5794 5795 5796 5797 5799 5800 5800 5801 5803 5803 5804 5805 5807 5808 5809 5810
5693 5699 5705 5710 5715 5721 5726 5731 5736 5741 5745 5749 5753 5757 5760 5763 5766 5768 5771 5773 5775 5777 5778 5780 5782 5784 5786 5788 5789 5790 5792 5793 5794 5795 5796 5797 5798 5799 5800 5800 5801 5802 5803 5804
5688 5694 5699 5704 5710 5715 5720 5725 5730 5735 5740 5744 5747 5751 5754 5758 5761 5763 5766 5768 5770 5772 5774 5775 5777 5779 5781 5783 5784 5786 5787 5788 5789 5790 5791 5792 5792 5793 5794 5795 5795 5796 5797 5798
5683 5688 5694 5699 5705 5710 5715 5720 5725 5730 5734 5738 5742 5746 5749 5752 5755 5758 5761 5763 5765 5767 5769 5771 5773 5774 5776 5778 5779 5781 5782 5783 5784 5785 5786 5786 5787 5787 5788 5789 5789 5790 5791 5791
Wind_Speed
31 31 29 27 27 27 26 24 24 24 22 21 20 18 17 16 16 16 15 14 14 14 14 13 13 13 13 14 15 14 14 14 14 15 15 17 17 16 16 15 14 13 12 11
32 30 29 29 29 28 27 26 25 25 23 22 21 19 18 17 16 17 16 15 14 15 14 14 13 14 14 15 15 15 16 15 14 15 16 17 17 16 16 16 15 14 13 12
32 31 31 30 29 28 27 26 26 25 24 23 22 20 19 17 16 16 15 14 14 15 15 15 15 15 15 15 15 15 15 15 15 16 16 17 17 17 16 16 16 16 15 14
34 33 32 31 29 28 28 27 27 26 24 24 22 20 20 17 16 15 14 14 15 15 15 15 15 15 15 15 15 13 13 14 15 16 16 16 17 17 17 16 16 15 15 15
34 33 32 31 29 29 29 28 27 26 25 24 22 20 20 19 17 16 15 15 16 15 15 15 15 15 15 15 14 14 13 13 15 16 16 16 17 18 18 17 16 16 15 15
34 34 33 32 31 31 30 28 27 26 25 26 24 21 20 19 17 16 16 15 16 16 16 15 15 15 15 15 15 14 12 13 15 16 16 16 17 18 18 18 17 16 16 16
33 33 33 33 32 32 31 29 27 27 27 26 25 23 22 20 18 17 16 16 16 16 17 17 17 16 16 15 15 14 13 13 14 16 16 16 17 17 18 18 18 17 16 16
32 32 33 32 32 31 30 29 27 25 23 24 26 24 21 20 18 17 16 16 16 17 17 17 17 16 16 15 15 14 13 13 14 15 16 16 17 17 18 18 18 17 16 17
32 32 32 32 31 31 31 30 28 25 23 21 24 22 20 18 17 17 17 17 17 17 17 17 16 16 16 16 16 16 15 14 14 15 16 16 17 18 18 19 19 18 17 17
31 31 32 32 32 32 31 30 30 28 24 21 22 21 19 18 17 17 17 17 17 17 16 17 16 16 16 16 16 16 16 15 15 15 16 17 18 18 18 18 18 19 19 18
31 30 31 32 33 32 32 32 31 29 26 21 18 20 20 19 18 18 18 17 17 16 16 16 16 16 16 16 16 17 17 17 16 16 16 17 18 18 19 18 18 19 19 18
31 30 29 31 31 31 30 30 30 29 27 24 18 17 20 19 18 18 18 17 17 16 16 16 15 15 15 16 16 17 17 17 17 17 17 17 17 18 18 19 20 20 20 19
32 32 30 30 31 32 31 31 30 28 26 24 21 18 20 19 18 18 18 18 17 17 17 16 16 15 15 16 17 18 17 17 17 17 17 18 18 18 19 19 19 20 20 20
32 32 30 27 27 30 31 30 29 28 26 24 21 19 20 19 19 19 18 18 18 17 17 16 15 15 15 15 16 16 15 16 17 18 19 19 19 19 19 19 19 20 20 20
32 31 31 29 28 29 29 29 29 28 26 23 21 20 19 19 19 20 19 19 18 17 17 16 15 15 15 15 15 15 15 16 17 17 19 20 19 19 19 19 19 19 19 19
32 31 30 30 30 29 29 29 29 28 26 25 22 20 19 20 20 20 20 20 19 18 17 17 16 15 15 15 14 15 15 15 16 16 17 18 18 18 19 19 19 19 19 19
31 31 30 29 30 30 31 30 28 27 26 24 22 20 20 20 20 20 20 21 20 19 18 18 17 16 15 15 14 14 15 15 16 17 17 18 17 17 18 18 18 18 19 19
31 31 30 28 30 31 29 29 28 26 25 24 23 22 21 20 20 20 20 21 20 19 18 18 17 16 15 15 15 14 14 15 16 16 17 18 18 18 18 18 18 18 19 19
32 31 30 29 29 29 30 29 28 26 25 24 23 22 22 21 21 21 20 20 21 20 19 19 18 17 16 16 15 15 15 15 15 16 16 17 18 18 18 18 18 18 18 19
33 32 31 30 28 29 29 28 26 25 25 24 23 23 23 22 22 21 20 20 21 21 20 20 19 18 17 17 16 16 15 15 15 15 16 17 17 18 18 18 18 19 18 19
33 32 31 30 29 29 29 28 27 27 25 24 24 24 23 23 23 21 21 20 21 21 21 21 20 19 18 17 17 16 15 15 15 16 16 16 17 18 18 17 18 18 18 18
32 31 31 30 31 31 29 29 29 28 25 24 24 24 23 23 23 22 21 20 20 20 21 21 20 19 19 18 17 16 16 16 16 16 16 17 17 17 17 17 17 17 17 18
32 31 31 31 31 29 29 29 29 27 26 25 24 24 24 24 23 22 21 20 20 19 19 19 19 19 18 18 18 18 18 17 17 17 17 17 17 17 17 17 18 18 19 19
30 30 29 30 28 28 28 29 29 28 26 25 25 24 24 24 22 21 21 20 19 19 19 19 19 18 18 18 18 18 18 18 18 17 17 17 18 18 19 19 19 20 20 20
29 29 28 28 28 28 28 28 28 28 27 26 25 24 24 23 23 21 20 20 19 19 19 19 19 19 19 18 18 18 18 18 18 18 18 19 19 20 20 20 20 20 21 22
29 29 29 29 28 27 27 28 29 28 27 26 25 24 24 23 22 22 21 20 19 19 19 19 19 19 19 19 18 18 18 19 19 19 20 20 20 20 21 21 21 22 23 23
Wind_Direction
233 233 233 233 232 232 232 232 234 238 240 240 241 241 245 246 248 250 251 253 257 256 260 264 268 272 275 274 272 271 267 260 251 240 230 228 227 228 227 228 228 227 226 226
231 230 230 229 230 231 230 230 232 235 236 236 239 242 244 247 249 250 251 252 252 253 259 263 266 271 275 276 275 272 267 258 246 236 229 227 228 228 227 225 225 228 226 225
230 229 228 228 228 229 228 228 230 233 234 236 240 244 247 249 250 250 249 250 249 251 255 261 267 270 272 275 278 274 265 256 244 237 235 232 230 230 226 225 224 225 225 224
226 226 225 225 226 226 226 226 229 231 233 237 238 241 249 248 247 248 248 249 250 253 256 261 265 268 269 273 273 270 264 252 240 232 233 234 229 228 228 227 227 224 224 224
226 225 223 223 223 223 224 225 227 230 232 236 238 236 247 246 245 247 249 250 250 254 257 261 264 263 267 271 271 268 262 250 240 233 232 231 226 227 228 228 228 225 225 224
224 223 222 220 220 220 222 223 226 229 231 235 237 237 240 245 244 247 247 247 248 252 255 257 261 263 267 271 273 270 265 255 242 235 232 230 228 229 229 229 228 227 227 225
222 221 219 218 218 219 219 220 222 226 229 234 237 238 238 241 244 245 245 244 248 252 254 256 261 264 265 269 271 267 262 254 247 236 231 231 231 231 229 228 228 229 229 228
220 220 218 217 217 220 220 219 219 224 231 235 238 238 240 239 241 242 243 244 248 251 254 257 261 263 262 263 264 262 260 258 253 242 235 234 233 233 231 229 228 229 231 232
218 219 218 217 217 217 218 218 219 224 226 229 240 239 239 238 239 241 243 244 249 252 255 256 258 259 259 259 259 258 256 257 253 244 240 239 238 236 232 229 229 230 233 235
215 217 218 216 216 217 218 219 220 221 223 228 238 241 239 238 238 240 242 244 247 250 253 255 257 260 260 258 256 256 255 256 252 247 247 243 238 234 232 232 233 234 234 236
212 214 217 216 216 218 218 218 220 223 225 226 236 244 238 239 238 240 243 243 244 247 251 254 256 259 260 257 258 259 257 255 252 248 246 239 236 234 234 236 238 236 235 240
210 211 215 217 218 218 220 220 221 223 227 225 226 242 239 235 237 238 238 239 241 245 249 253 255 258 259 257 258 260 262 256 249 245 241 237 236 236 236 240 240 238 238 242
210 210 211 215 219 218 219 219 220 222 227 228 224 234 239 234 235 235 236 238 241 246 249 251 253 256 257 256 257 258 257 253 245 242 239 237 238 237 238 243 242 241 241 243
212 213 211 215 222 221 219 219 220 221 224 229 227 229 238 234 233 233 235 239 243 246 248 250 252 254 257 256 255 253 252 249 244 240 237 237 238 238 240 243 244 243 243 244
212 214 213 212 217 221 221 221 221 223 223 227 229 228 233 234 233 234 236 239 243 245 246 250 251 253 258 257 254 249 249 247 244 241 238 236 236 237 239 241 243 244 243 243
214 213 214 214 217 219 221 220 221 223 223 224 226 228 229 233 234 234 236 238 242 244 246 248 249 252 257 257 256 249 246 246 242 240 237 234 232 235 238 241 244 245 244 244
214 214 213 215 217 219 222 220 221 222 223 224 227 227 228 232 234 234 234 236 239 242 245 247 247 251 254 253 255 253 249 247 244 241 238 235 234 236 238 241 244 245 244 245
213 214 214 214 217 219 221 220 221 223 223 224 227 226 227 230 231 232 233 235 236 240 243 245 245 248 249 250 252 253 252 250 244 242 241 238 237 238 240 242 245 246 246 247
213 214 213 214 218 221 222 220 220 221 223 224 225 226 225 226 229 231 232 235 234 237 241 244 244 245 248 249 250 249 251 250 247 244 242 241 242 243 243 245 245 245 249 249
212 214 215 215 217 223 225 220 220 221 223 223 224 224 225 226 229 231 232 234 235 235 238 242 242 245 249 249 249 249 249 246 244 243 243 244 244 244 245 247 247 249 251 253
212 213 216 217 219 223 223 218 218 221 222 222 223 224 225 226 229 231 233 234 235 236 239 241 242 245 248 248 247 247 246 245 244 244 243 244 245 245 245 246 248 249 250 251
212 214 216 217 220 222 219 217 217 219 220 222 223 223 225 228 230 233 234 234 234 237 239 241 241 241 243 244 246 245 245 244 244 246 246 247 248 247 245 247 249 249 250 252
211 212 215 217 218 219 219 217 218 219 220 221 223 223 226 228 231 232 233 233 235 236 238 238 237 237 239 242 244 245 246 246 246 247 247 247 248 247 247 248 249 250 252 252
211 213 216 216 216 216 216 216 217 218 218 220 222 224 227 230 231 231 232 234 234 235 235 234 235 236 238 240 243 246 246 247 248 249 249 250 251 252 251 251 251 252 253 252
210 212 214 213 213 214 215 215 215 216 218 220 222 225 228 230 230 230 230 230 233 236 234 234 237 236 238 241 245 246 246 248 251 251 252 255 257 257 258 258 257 257 255 253
209 210 210 210 209 211 212 212 213 215 217 218 220 221 223 226 226 228 228 228 231 233 234 236 238 239 242 245 248 249 249 249 251 252 254 257 259 258 258 260 260 261 259 257